Location: Chuathbaluk
(61.5726°N, 159.2454°W)
Time: 22:55:52
(UTC+00:00)

SR - Visible Passes

Search period start: 25 November 2020 00:00
Search period end: 05 December 2020 00:00
Orbit: 579 x 876 km, 66.7° (Epoch: 25 November)

Date Brightness Start Highest point End Pass type
(mag) Time Alt. Az. Time Alt. Az. Time Alt. Az.
29 Nov ? 04:41:57 10° SSE 04:42:16 11° SSE 04:42:16 11° SSE visible
30 Nov ? 03:54:18 10° SE 03:54:25 10° SE 03:54:25 10° SE visible
30 Nov ? 05:32:31 10° SSW 05:33:51 19° SSW 05:33:51 19° SSW visible
01 Dec ? 04:43:27 10° S 04:45:55 24° SSE 04:45:55 24° SSE visible
01 Dec ? 06:24:21 10° SW 06:25:21 17° SW 06:25:21 17° SW visible
02 Dec ? 03:54:53 10° SSE 03:57:55 19° ESE 03:57:55 19° ESE visible
02 Dec ? 05:34:43 10° SW 05:37:20 34° SSW 05:37:20 34° SSW visible
03 Dec ? 03:07:24 10° SE 03:08:50 11° ESE 03:09:50 11° E visible
03 Dec ? 04:45:21 10° SSW 04:49:16 43° SE 04:49:16 43° SE visible
03 Dec ? 06:26:55 10° WSW 06:28:41 23° WSW 06:28:41 23° WSW visible
04 Dec ? 03:56:19 10° S 04:00:11 28° ESE 04:01:08 26° E visible
04 Dec ? 05:37:08 10° SW 05:40:32 51° SW 05:40:32 51° SW visible
04 Dec ? 07:19:34 10° W 07:19:58 12° W 07:19:58 12° W visible
